• In Deutschland
  • Länderverzeichnis
  • Für 7 Tage
  • Wassertemperatur
  • Satellitenkarten
  • Wetterkarte
  • Widgets
  • user-avatar
    Anmelden

    Stündliche Wetter Unterschleißheim

    Heute, 12 Dezember, Dienstag

    Zeit Temperatur Niederschläge Wind Luftdruck Luftfeuchtigkeit
    00:00 +1°C° 0,7 mm 4 m/S 702 mmHg 92%
    01:00 +2°C° 0 mm 3 m/S 703 mmHg 92%
    02:00 +2°C° 1,1 mm 3 m/S 704 mmHg 91%
    03:00 +1°C° 1,1 mm 4 m/S 705 mmHg 91%
    04:00 +1°C° 1,1 mm 4 m/S 705 mmHg 90%
    05:00 +1°C° 0,4 mm 4 m/S 707 mmHg 90%
    06:00 0°C° 0,4 mm 4 m/S 708 mmHg 89%
    07:00 0°C° 0,4 mm 4 m/S 709 mmHg 89%
    08:00 0°C° 0,2 mm 4 m/S 710 mmHg 88%
    09:00 0°C° 0,2 mm 4 m/S 711 mmHg 86%
    10:00 -1°C° 0,2 mm 4 m/S 713 mmHg 85%
    11:00 -1°C° 0,2 mm 4 m/S 714 mmHg 85%
    12:00 0°C° 0,2 mm 4 m/S 714 mmHg 85%
    13:00 0°C° 0,2 mm 4 m/S 715 mmHg 84%
    14:00 0°C° 0,1 mm 3 m/S 716 mmHg 86%
    15:00 0°C° 0,1 mm 3 m/S 716 mmHg 88%
    16:00 0°C° 0,1 mm 3 m/S 717 mmHg 89%
    17:00 -1°C° 0,1 mm 3 m/S 718 mmHg 90%
    18:00 -1°C° 0,1 mm 3 m/S 718 mmHg 90%
    19:00 -1°C° 0,1 mm 3 m/S 719 mmHg 91%
    20:00 -1°C° 0 mm 3 m/S 720 mmHg 91%
    21:00 -1°C° 0 mm 3 m/S 720 mmHg 91%
    22:00 -2°C° 0 mm 2 m/S 721 mmHg 91%
    23:00 -2°C° 0 mm 2 m/S 721 mmHg 91%

    Morgen, 13 Dezember, Mittwoch

    Zeit Temperatur Niederschläge Wind Luftdruck Luftfeuchtigkeit
    00:00 -2°C° 0 mm 2 m/S 721 mmHg 91%
    01:00 -3°C° 0 mm 2 m/S 722 mmHg 91%
    02:00 -3°C° 0 mm 2 m/S 722 mmHg 91%
    03:00 -4°C° 0 mm 2 m/S 722 mmHg 91%
    04:00 -4°C° 0 mm 2 m/S 722 mmHg 91%
    05:00 -4°C° 0 mm 2 m/S 722 mmHg 90%
    06:00 -5°C° 0 mm 3 m/S 722 mmHg 90%
    07:00 -6°C° 0 mm 3 m/S 722 mmHg 89%
    08:00 -5°C° 0 mm 3 m/S 722 mmHg 85%
    09:00 -4°C° 0 mm 3 m/S 722 mmHg 80%
    10:00 -2°C° 0 mm 3 m/S 721 mmHg 76%
    11:00 -1°C° 0 mm 3 m/S 721 mmHg 74%
    12:00 0°C° 0 mm 3 m/S 720 mmHg 72%
    13:00 +1°C° 0 mm 3 m/S 719 mmHg 69%
    14:00 +1°C° 0 mm 3 m/S 718 mmHg 73%
    15:00 0°C° 0 mm 3 m/S 718 mmHg 76%
    16:00 0°C° 0 mm 3 m/S 717 mmHg 79%
    17:00 0°C° 0,3 mm 3 m/S 717 mmHg 78%
    18:00 0°C° 0,3 mm 3 m/S 716 mmHg 78%
    19:00 0°C° 0,3 mm 3 m/S 716 mmHg 77%
    20:00 0°C° 0,5 mm 3 m/S 715 mmHg 78%
    21:00 0°C° 0,5 mm 3 m/S 715 mmHg 79%
    22:00 +1°C° 0,5 mm 3 m/S 714 mmHg 80%
    23:00 +1°C° 0,4 mm 3 m/S 713 mmHg 80%

    übermorgen, 14 Dezember, Donnerstag

    Zeit Temperatur Niederschläge Wind Luftdruck Luftfeuchtigkeit
    00:00 +1°C° 0,4 mm 3 m/S 713 mmHg 80%
    01:00 +1°C° 0,4 mm 3 m/S 712 mmHg 81%
    02:00 0°C° 0,3 mm 4 m/S 711 mmHg 81%
    03:00 +1°C° 0,3 mm 4 m/S 711 mmHg 82%
    04:00 +1°C° 0,3 mm 5 m/S 711 mmHg 82%
    05:00 +1°C° 0,1 mm 5 m/S 711 mmHg 83%
    06:00 +2°C° 0,1 mm 5 m/S 711 mmHg 84%
    07:00 +2°C° 0,1 mm 6 m/S 711 mmHg 85%
    08:00 +2°C° 0,2 mm 6 m/S 711 mmHg 86%
    09:00 +2°C° 0,2 mm 6 m/S 711 mmHg 87%
    10:00 +3°C° 0,2 mm 5 m/S 712 mmHg 88%
    11:00 +3°C° 0,1 mm 5 m/S 711 mmHg 87%
    12:00 +3°C° 0,1 mm 5 m/S 711 mmHg 86%
    13:00 +4°C° 0,1 mm 4 m/S 711 mmHg 86%
    14:00 +3°C° 0,1 mm 4 m/S 710 mmHg 86%
    15:00 +3°C° 0,1 mm 4 m/S 710 mmHg 86%
    16:00 +1°C° 0,1 mm 4 m/S 709 mmHg 87%
    17:00 +1°C° 0,2 mm 4 m/S 709 mmHg 87%
    18:00 +1°C° 0,2 mm 4 m/S 708 mmHg 88%
    19:00 +1°C° 0,2 mm 4 m/S 707 mmHg 89%
    20:00 +1°C° 1,1 mm 4 m/S 706 mmHg 87%
    21:00 +1°C° 1,1 mm 4 m/S 706 mmHg 85%
    22:00 +3°C° 1,1 mm 4 m/S 705 mmHg 84%
    23:00 +1°C° 1,8 mm 4 m/S 706 mmHg 86%

    15 Dezember, Freitag

    Zeit Temperatur Niederschläge Wind Luftdruck Luftfeuchtigkeit
    00:00 +1°C° 1,8 mm 4 m/S 707 mmHg 88%
    01:00 +1°C° 1,8 mm 4 m/S 707 mmHg 89%
    02:00 +1°C° 0,2 mm 4 m/S 708 mmHg 88%
    03:00 0°C° 0,2 mm 4 m/S 708 mmHg 86%
    04:00 0°C° 0,2 mm 5 m/S 708 mmHg 85%
    05:00 0°C° 0 mm 4 m/S 709 mmHg 85%
    06:00 -1°C° 0 mm 4 m/S 709 mmHg 86%
    07:00 -1°C° 0 mm 4 m/S 709 mmHg 86%
    08:00 0°C° 0 mm 4 m/S 709 mmHg 85%
    09:00 0°C° 0 mm 4 m/S 709 mmHg 85%
    10:00 0°C° 0 mm 5 m/S 709 mmHg 84%
    11:00 +1°C° 0 mm 5 m/S 709 mmHg 80%
    12:00 +1°C° 0 mm 5 m/S 709 mmHg 77%
    13:00 +2°C° 0 mm 6 m/S 708 mmHg 73%
    14:00 +1°C° 0 mm 5 m/S 708 mmHg 75%
    15:00 0°C° 0 mm 4 m/S 708 mmHg 78%
    16:00 0°C° 0 mm 3 m/S 708 mmHg 80%
    17:00 -1°C° 0 mm 4 m/S 708 mmHg 81%
    18:00 -1°C° 0 mm 5 m/S 709 mmHg 82%
    19:00 -1°C° 0 mm 5 m/S 709 mmHg 83%
    20:00 -1°C° 0 mm 5 m/S 709 mmHg 83%
    21:00 -2°C° 0 mm 5 m/S 710 mmHg 84%
    22:00 -2°C° 0 mm 5 m/S 710 mmHg 84%
    23:00 -2°C° 0,1 mm 5 m/S 711 mmHg 84%

    16 Dezember, Samstag

    Zeit Temperatur Niederschläge Wind Luftdruck Luftfeuchtigkeit
    00:00 -2°C° 0,1 mm 5 m/S 711 mmHg 85%
    01:00 -2°C° 0,1 mm 5 m/S 711 mmHg 85%
    02:00 -2°C° 0,1 mm 5 m/S 712 mmHg 85%
    03:00 -2°C° 0,1 mm 5 m/S 712 mmHg 86%
    04:00 -2°C° 0,1 mm 5 m/S 713 mmHg 86%
    05:00 -2°C° 0,3 mm 5 m/S 713 mmHg 87%
    06:00 -2°C° 0,3 mm 5 m/S 714 mmHg 87%
    07:00 -2°C° 0,3 mm 5 m/S 715 mmHg 88%
    08:00 -2°C° 0,1 mm 5 m/S 715 mmHg 86%
    09:00 -2°C° 0,1 mm 6 m/S 716 mmHg 84%
    10:00 -2°C° 0,1 mm 6 m/S 717 mmHg 83%
    11:00 -2°C° 0,1 mm 6 m/S 717 mmHg 81%
    12:00 -2°C° 0,1 mm 6 m/S 717 mmHg 80%
    13:00 -1°C° 0,1 mm 6 m/S 717 mmHg 78%
    14:00 -1°C° 0 mm 5 m/S 717 mmHg 79%
    15:00 -1°C° 0 mm 5 m/S 717 mmHg 80%
    16:00 -2°C° 0 mm 4 m/S 717 mmHg 81%
    17:00 -2°C° 0,1 mm 4 m/S 718 mmHg 81%
    18:00 -2°C° 0,1 mm 5 m/S 718 mmHg 82%
    19:00 -4°C° 0,1 mm 5 m/S 719 mmHg 82%
    20:00 -4°C° 0,2 mm 5 m/S 719 mmHg 83%
    21:00 -2°C° 0,2 mm 5 m/S 719 mmHg 84%
    22:00 -2°C° 0,2 mm 5 m/S 720 mmHg 85%
    23:00 -3°C° 0,2 mm 4 m/S 720 mmHg 87%

    17 Dezember, Sonntag

    Zeit Temperatur Niederschläge Wind Luftdruck Luftfeuchtigkeit
    00:00 -3°C° 0,2 mm 4 m/S 720 mmHg 88%
    01:00 -3°C° 0,2 mm 4 m/S 720 mmHg 89%
    02:00 -3°C° 0,3 mm 4 m/S 720 mmHg 89%
    03:00 -3°C° 0,3 mm 4 m/S 720 mmHg 90%
    04:00 -3°C° 0,3 mm 4 m/S 721 mmHg 91%
    05:00 -2°C° 0,2 mm 3 m/S 721 mmHg 92%
    06:00 -2°C° 0,2 mm 3 m/S 721 mmHg 93%
    07:00 -4°C° 0,2 mm 3 m/S 722 mmHg 94%
    08:00 -2°C° 0 mm 3 m/S 722 mmHg 92%
    09:00 -2°C° 0 mm 3 m/S 723 mmHg 91%
    10:00 -3°C° 0 mm 4 m/S 723 mmHg 89%
    11:00 -3°C° 0,1 mm 4 m/S 723 mmHg 88%
    12:00 -2°C° 0,1 mm 4 m/S 724 mmHg 86%
    13:00 -2°C° 0,1 mm 4 m/S 724 mmHg 85%
    14:00 -2°C° 0,1 mm 4 m/S 724 mmHg 85%
    15:00 -1°C° 0,1 mm 3 m/S 724 mmHg 86%
    16:00 -1°C° 0,1 mm 3 m/S 725 mmHg 87%
    17:00 -2°C° 0,1 mm 3 m/S 726 mmHg 88%
    18:00 -2°C° 0,1 mm 3 m/S 726 mmHg 89%
    19:00 -2°C° 0,1 mm 3 m/S 727 mmHg 91%
    20:00 -2°C° 0,1 mm 3 m/S 727 mmHg 91%
    21:00 -4°C° 0,1 mm 3 m/S 727 mmHg 91%
    22:00 -4°C° 0,1 mm 3 m/S 728 mmHg 91%
    23:00 -5°C° 0 mm 3 m/S 728 mmHg 91%
    Mehr zeigen